ARIANE 2 DEB

基本信息
目录编号:
42488
目录名称:
ARIANE 2 DEB
国际标识:
1989-006CQ
轨道中心:
EARTH
物体状态:
在轨
发射日期:
1989-01-27 UTC
轨道信息
数据来源: 国际轨道数据
星历时间: 2024-04-29T13:32:47+0800
半长轴: 24784.692km
偏心率: 0.7072739
轨道倾角: 9.185°
近地点辐角: 240.491°
升交点赤经: 1.506°
平近点角: 32.231°
近地点: 876.991km
远地点: 35936.123km
周期: 647.195分钟
每日圈数: 2.224987
详细信息
发射场:
FRGUI
轨道高度:
LEO
数据来源:
AOE Integration Group
参考系:
TEME
时间系统:
UTC
历元类型:
SGP4
2D轨道图
3D轨道图
轨道高度分析图
轨道倾角分析图
轨道综合分析图
查看轨道综合分析图